This demonstration page uses our WeatherBlox Daily Observations layout. Learn more.

Left ArrowRight Arrow

31.31129, -92.44514

Hourly Observations for December 30, 2015

Temp ( °F °C ) Dew Point ( °F °C ) Humidity (%) Winds ( mph kmh ) Pressure ( in mb ) Visibility ( mi km ) Precip ( " mm )
12:53 am 00:53 Cloudy 50 10 44 6.7 80 80 NNW 5 7 30.17 1022 10 16 0.00 0.00
1:53 am 01:53 Cloudy with Light Rain 50 10 44 6.7 80 80 NNW 5 7 30.17 1022 10 16 0.00 0.03
2:53 am 02:53 Cloudy 50 10 45 7.2 83 83 N 3 6 30.15 1021 10 16 0.00 0.03
3:53 am 03:53 Cloudy 49 9.4 45 7.2 86 86 N 5 7 30.14 1021 10 16 0.00 0.03
4:53 am 04:53 Cloudy 49 9.4 45 7.2 86 86 N 7 11 30.14 1021 10 16 0.00 0.00
5:53 am 05:53 Cloudy 49 9.4 45 7.2 86 86 N 6 9 30.15 1021 10 16 0.00 0.00
6:53 am 06:53 Mostly Cloudy 48 8.9 44 6.7 86 86 N 3 6 30.17 1022 10 16 0.00 0.00
7:53 am 07:53 Sunny 49 9.4 44 6.7 83 83 N 7 11 30.19 1022 10 16 0.00 0.00
8:53 am 08:53 Cloudy 49 9.4 43 6.1 80 80 N 9 15 30.22 1023 10 16 0.00 0.00
9:53 am 09:53 Cloudy 52 11.1 44 6.7 75 75 VRB 3 6 30.24 1024 10 16 0.00 0.00
10:53 am 10:53 Mostly Cloudy 56 13.3 44 6.7 65 65 N 9 15 30.22 1023 10 16 0.00 0.00
11:53 am 11:53 Cloudy 56 13.3 43 6.1 62 62 NNE 8 13 30.22 1024 10 16 0.00 0.00
12:53 pm 12:53 Cloudy 58 14.4 44 6.7 60 60 N 9 15 30.19 1022 10 16 0.00 0.00
1:53 pm 13:53 Partly Cloudy 57 13.9 44 6.7 62 62 NE 8 13 30.19 1022 10 16 0.00 0.00
2:53 pm 14:53 Mostly Cloudy 58 14.4 44 6.7 60 60 NE 8 13 30.18 1022 10 16 0.00 0.00
3:53 pm 15:53 Mostly Cloudy 57 13.9 43 6.1 60 60 NNE 8 13 30.16 1021 10 16 0.00 0.00
4:53 pm 16:53 Cloudy 57 13.9 43 6.1 60 60 NNE 7 11 30.20 1023 10 16 0.00 0.00
5:53 pm 17:53 Cloudy 55 12.8 44 6.7 67 67 NNE 7 11 30.19 1023 10 16 0.00 0.00
6:53 pm 18:53 Cloudy 54 12.2 43 6.1 67 67 N 3 6 30.20 1023 10 16 0.00 0.00
7:53 pm 19:53 Cloudy 52 11.1 42 5.6 69 69 N 12 19 30.22 1023 10 16 0.00 0.00
8:53 pm 20:53 Cloudy 52 11.1 42 5.6 69 69 NNE 9 15 30.22 1023 10 16 0.00 0.00
9:53 pm 21:53 Cloudy 51 10.6 43 6.1 74 74 N 8 13 30.24 1024 10 16 0.00 0.00
10:53 pm 22:53 Cloudy 50 10 43 6.1 77 77 NNE 7 11 30.25 1024 10 16 0.00 0.00
11:53 pm 23:53 Cloudy 50 10 43 6.1 77 77 NNE 5 7 30.24 1024 10 16 0.00 0.00

Powered by AerisWeather